Location: *
(51.1248°S, 108.4023°W)
Time: 09:24:08
(UTC+00:00)

Envisat - Pass Details

Date: 04 October 2021
Orbit: 764 x 766 km, 98.2° (Epoch: 27 October)

Event Time Altitude Azimuth Distance (km) Brightness Sun altitude
Rises 10:30:09 0° 40° (NE) 3,237 6.3 -18.9°
Reaches altitude 10° 10:32:33 10° 46° (NE) 2,318 5.6 -18.6°
Maximum altitude 10:37:18 40° 115° (ESE) 1,131 4.4 -18.0°
Drops below altitude 10° 10:42:07 10° 183° (S) 2,345 5.9 -17.3°
Sets 10:44:33 0° 189° (S) 3,279 6.6 -17.0°
